EW1015 Weather Reports


Display with metric or nautical units.
time (UTC)temp
F
wind
direction
speed
MPH
gust
MPH
rain 1hr
in
rain 24hr
in
rain mn
in
humidity
%
barometer
mb
20260506140019 44 67 3.0 6.0 0.01 1.03 0.69 1 1009.7
20260506134520 44 42 4.0 9.0 0.01 1.03 0.69 1 1009.7
20260506133011 44 76 3.0 6.0 0.02 1.03 0.69 1 1009.6
20260506131516 44 45 3.0 9.0 0.04 1.03 0.69 1 1009.7
20260506130003 44 50 2.0 6.0 0.04 1.02 0.68 1 1009.6
20260506124600 44 49 2.0 4.0 0.05 1.02 0.68 1 1009.8
20260506123053 44 65 2.0 3.0 0.06 1.01 0.67 1 1009.8
20260506121548 44 34 2.0 5.0 0.04 0.99 0.65 1 1009.8
20260506120043 44 50 3.0 9.0 0.04 0.98 0.64 1 1009.8
20260506114539 44 48 2.0 8.0 0.04 0.97 0.63 1 1009.5
20260506113035 44 86 4.0 9.0 0.04 0.95 0.61 1 1009.3
20260506111530 44 73 5.0 11.0 0.08 0.95 0.61 1 1009.4
20260506110026 44 73 7.0 12.0 0.08 0.94 0.60 1 1009.5
20260506104521 44 68 5.0 10.0 0.10 0.94 0.59 1 1009.4
20260506103029 44 14 2.0 7.0 0.09 0.92 0.56 1 1009.6
20260506101512 44 59 4.0 10.0 0.06 0.88 0.53 1 1009.5
20260506100011 44 72 6.0 11.0 0.07 0.87 0.52 1 1009.5
20260506094503 45 26 2.0 7.0 0.04 0.84 0.49 1 1009.6
20260506093059 45 69 5.0 11.0 0.05 0.83 0.48 1 1009.0
20260506091555 45 63 4.0 10.0 0.06 0.82 0.47 1 1009.2
20260506090050 46 51 5.0 12.0 0.06 0.80 0.45 1 1009.1
20260506084546 46 72 4.0 11.0 0.07 0.80 0.45 1 1009.0
20260506083041 46 46 4.0 11.0 0.08 0.78 0.43 1 1009.4
20260506081537 46 44 4.0 6.0 0.09 0.76 0.41 1 1009.8
20260506073024 47 25 1.0 6.0 0.10 0.70 0.35 1 1009.6
20260506071523 48 73 3.0 9.0 0.09 0.66 0.31 1 1009.2
20260506061502 48 111 2.0 4.0 0.09 0.56 0.21 1 1009.3
20260506060121 48 110 2.0 6.0 0.10 0.54 0.19 1 1009.4
20260506044534 48 103 1.0 4.0 0.04 0.40 0.04 1 1010.6
20260506043030 48 110 2.0 5.0 0.02 0.37 0.01 1 1010.5
20260506041526 48 94 2.0 6.0 0.06 0.37 0.01 1 1010.4
20260506040022 48 66 1.0 4.0 0.05 0.36 0.00 1 1010.6
20260506034517 48 40 0.0 3.0 0.07 0.36 0.36 1 1010.7
20260506033016 48 66 1.0 4.0 0.06 0.35 0.35 1 1010.5
20260506031508 48 146 1.0 4.0 0.06 0.31 0.31 1 1010.7
20260506030012 48 92 2.0 5.0 0.10 0.31 0.31 1 1010.5
20260506024505 48 70 0.0 2.0 0.10 0.28 0.28 1 1011.0
20260506023101 47 57 0.0 3.0 0.11 0.28 0.28 1 1011.1
20260506021553 48 153 0.0 3.0 0.09 0.25 0.25 1 1011.6
20260506020049 47 61 0.0 2.0 0.09 0.21 0.21 1 1011.2
20260506014545 47 103 1.0 3.0 0.09 0.19 0.19 1 1011.0
20260506013040 47 65 1.0 5.0 0.12 0.18 0.18 1 1011.0
20260506011535 47 96 1.0 3.0 0.11 0.16 0.16 1 1010.7
20260506010034 47 66 0.0 4.0 0.08 0.12 0.12 1 1010.7
20260506004527 47 89 1.0 3.0 0.06 0.10 0.10 1 1010.3
20260506003022 48 59 2.0 8.0 0.03 0.06 0.06 1 1010.1
20260506001519 48 351 6.0 10.0 0.03 0.05 0.05 1 1009.6
20260506000014 49 17 6.0 10.0 0.02 0.04 0.04 1 1009.9
20260505234509 50 323 7.0 12.0 0.02 0.04 0.04 1 1009.6
20260505233004 52 308 8.0 14.0 0.01 0.03 0.03 19 1009.6
20260505231605 54 316 4.0 14.0 0.00 0.02 0.02 40 1009.6
20260505230101 57 5 6.0 16.0 0.00 0.02 0.02 44 1009.0
20260505224552 60 321 10.0 18.0 0.00 0.02 0.02 38 1008.3
20260505223047 61 338 8.0 25.0 0.00 0.02 0.02 40 1007.9
20260505221542 63 292 12.0 22.0 0.00 0.02 0.02 46 1007.5
20260505220037 64 311 13.0 23.0 0.00 0.02 0.02 49 1007.0
20260505214533 65 295 8.0 17.0 0.00 0.02 0.02 47 1006.6
20260505213028 66 264 10.0 17.0 0.00 0.02 0.02 51 1006.2
20260505211523 67 323 11.0 20.0 0.00 0.02 0.02 50 1006.0
20260505210019 66 297 10.0 20.0 0.00 0.02 0.02 50 1006.0
20260505204514 66 311 12.0 21.0 0.00 0.02 0.02 49 1005.9
20260505203013 66 301 9.0 17.0 0.00 0.02 0.02 50 1005.9
20260505201511 66 306 10.0 21.0 0.00 0.02 0.02 50 1005.9
20260505200002 67 299 10.0 20.0 0.00 0.02 0.02 53 1006.0
20260505194556 68 286 7.0 14.0 0.00 0.02 0.02 54 1005.7
20260505193050 69 280 9.0 19.0 0.00 0.02 0.02 57 1005.5
20260505191607 70 243 8.0 17.0 0.00 0.02 0.02 57 1005.5
20260505190042 70 282 9.0 17.0 0.00 0.02 0.02 57 1005.5
20260505184537 71 276 8.0 14.0 0.00 0.02 0.02 57 1005.2
20260505183036 70 288 10.0 17.0 0.00 0.02 0.02 57 1005.3
20260505181527 68 278 8.0 19.0 0.00 0.02 0.02 56 1005.5
20260505180041 67 207 6.0 13.0 0.00 0.02 0.02 56 1005.1
20260505174518 71 241 10.0 20.0 0.00 0.02 0.02 55 1005.0
20260505173015 71 248 13.0 29.0 0.00 0.02 0.02 56 1005.0
20260505171514 69 297 14.0 24.0 0.00 0.02 0.02 56 1005.2
20260505170012 69 259 9.0 24.0 0.00 0.02 0.02 56 1005.2
20260505164505 70 281 19.0 28.0 0.00 0.02 0.02 54 1005.0
20260505163002 70 293 14.0 24.0 0.00 0.02 0.02 55 1005.0
20260505161557 70 261 13.0 20.0 0.00 0.02 0.02 55 1004.6
20260505153044 70 249 9.0 15.0 0.00 0.02 0.02 57 1004.1
20260505151539 69 247 9.0 18.0 0.00 0.02 0.02 57 1004.6